Starlink 11703

operational
NORAD ID: 63759 Int'l Des: 2025-089 Owner: SPXS Country: US Constellation: starlink
LEOCIRCULAR

Über Starlink 11703

Beschreibung wird geladen...

Live-Position

3D-Globus wird geladen...

Nächste Überflüge

Höhenverlauf

Altitude vs Time

uPlot chart will show altitude changes over time

Zweizeiliger Elementsatz

1 63759U 25089J 25259.70498360 .00219697 00000-0 16701-2 0 9995
2 63759 42.9984 260.8391 0000577 17.7349 342.3539 15.70849056 22779
Epoch: 16. Sept. 2025 • Age: 35 hours

Aktueller Status

Höhe 354.7 km
Geschwindigkeit 7.70 km/s
Subsatellitenpunkt 28.67°N, 132.68°W
Startdatum 29. Apr. 2025
Alter 0.3 years
Typ internet

Technische Details

Klassifizierung Payload
Masse 960.00 kg
Trockenmasse 910.00 kg
Gesamtmasse 960.00 kg
Länge 0.30 m
Durchmesser 4.10 m
Spannweite 29.00 m
Form Box + pan
Hersteller SPXS
Bus-Typ Starlink V2MD
Phasenstatus In Orbit
Besitzer/Staat SPXS/US

Große Konstellationen

Loading constellations...